Location: G�migny
(47.9646°N, 1.6950°E)
Time: 13:16:13
(UTC+00:00)

STARLINK-21 - Pass Details

Date: 23 October 2019
Orbit: 550 x 552 km, 53.0° (Epoch: 17 November)

Event Time Altitude Azimuth Distance (km) Brightness Sun altitude
Rises 17:42:27 0° 284° (WNW) 2,721 8.7 -9.3°
Reaches altitude 10° 17:44:47 10° 292° (WNW) 1,828 7.4 -9.7°
Maximum altitude 17:48:44 41° 3° (N) 814 4.4 -10.4°
Enters shadow 17:51:53 15° 70° (ENE) 1,543 5.3 -10.9°
